Погода в Косачеве

Россия / Ивановская область     57°18′28″N   41°56′35″E
темп.,
°C
ветер,
м/с
пор.,
м/с
влажн.,
%
обл.,
%
осадки,
мм/ч
давл.,
гПа
погр.,
м
13 мая, чт
чт1300:00+15юв258272 0.0 102289
03:00+13юв368614 0.0 1022118
06:00+14вюв27838 0.0 1022216
09:00+19юв47691 0.0 1021895
12:00+22юв585890 0.1 10201730
15:00+23вюв7115884 0.9 10171933
18:00+18ююв5108175 1.8 1017720
21:00+13ююв1196100 6.0 101754
14 мая, пт
пт1400:00+11ююз22900 0.1 101815
03:00+10юз22959 0.1 101921
06:00+12ююв13916 0.0 1019101
09:00+17ююв3576100 0.0 1019492
12:00+20ю3460100 0.0 10191194
15:00+22ююв345496 0.1 10181493
18:00+20юв2570100 0.1 1017174
21:00+15в368596 0.1 101683
15 мая, сб
сб1500:00+15юв3794100 2.4 1015139
03:00+14юв3897100 3.9 1014151
06:00+16ююв3896100 0.1 1014216
09:00+20юв2483100 0.1 1012361
12:00+24ююв586264 0.0 10111277
15:00+22ююз71074100 2.8 10111144
18:00+20ю5128219 4.8 1010766
21:00+16ю4129296 5.3 1011390
16 мая, вс
вс1600:00+14ююз3109698 0.1 1012222
03:00+13ююз37966 0.1 1013138
06:00+14ююз37930 0.0 1013226
09:00+18ююз3576100 0.0 1014587
12:00+21ююз466084 0.0 10141538
15:00+22юз58534 0.1 10132129
18:00+19зюз49730 0.3 1013406
21:00+14зюз37870 0.5 1014113
17 мая, пн
пн1700:00+12зюз38950 0.0 1016150
03:00+11зсз23965 0.0 101749
06:00+13ссз1288100 0.0 101888
09:00+18всв116699 0.0 1018470
12:00+22вюв11525 0.0 10181066
15:00+24вюв124699 0.0 10171279
18:00+22вюв356551 0.0 1017226
21:00+16в357451 0.0 101769